| time (UTC) | temp F | wind direction | speed knots | gust knots | rain 1hr in | rain 24hr in | rain mn in | humidity % | barometer mb |
| 20260504150111 | 67 | 219 | 1.7 | 6.1 | 0.00 | 0.00 | 0.00 | 47 | 1017.4 |
| 20260504100104 | 40 | 0 | 0.0 | 0.0 | 0.00 | 0.00 | 0.00 | 90 | 1016.6 |
| 20260504081604 | 43 | 0 | 0.0 | 0.0 | 0.00 | 0.00 | 0.00 | 84 | 1016.4 |
| 20260504080116 | 44 | 0 | 0.0 | 0.0 | 0.00 | 0.00 | 0.00 | 83 | 1016.2 |
| 20260504044551 | 47 | 0 | 0.0 | 0.0 | 0.00 | 0.00 | 0.00 | 79 | 1016.9 |
| 20260504043108 | 48 | 0 | 0.0 | 0.0 | 0.00 | 0.00 | 0.00 | 76 | 1016.8 |
| 20260504041550 | 48 | 0 | 0.0 | 0.0 | 0.00 | 0.00 | 0.00 | 74 | 1016.5 |
| 20260504040119 | 48 | 0 | 0.0 | 0.0 | 0.00 | 0.00 | 0.00 | 74 | 1016.6 |
| 20260504034556 | 49 | 0 | 0.0 | 0.0 | 0.00 | 0.00 | 0.00 | 73 | 1016.7 |
| 20260504033056 | 49 | 0 | 0.0 | 0.0 | 0.00 | 0.00 | 0.00 | 73 | 1016.7 |
| 20260504031556 | 50 | 0 | 0.0 | 0.0 | 0.00 | 0.00 | 0.00 | 71 | 1016.9 |
| 20260504030052 | 51 | 0 | 0.0 | 0.0 | 0.00 | 0.00 | 0.00 | 70 | 1016.8 |
| 20260504024557 | 51 | 0 | 0.0 | 0.0 | 0.00 | 0.00 | 0.00 | 69 | 1016.8 |
| 20260504023101 | 53 | 0 | 0.0 | 0.0 | 0.00 | 0.00 | 0.00 | 65 | 1016.7 |
| 20260504021557 | 54 | 0 | 0.0 | 0.0 | 0.00 | 0.00 | 0.00 | 60 | 1016.6 |
| 20260504020052 | 55 | 0 | 0.0 | 0.0 | 0.00 | 0.00 | 0.00 | 56 | 1016.4 |
| 20260504014601 | 55 | 0 | 0.0 | 0.0 | 0.00 | 0.00 | 0.00 | 55 | 1016.0 |
| 20260504013120 | 56 | 0 | 0.0 | 0.0 | 0.00 | 0.00 | 0.00 | 53 | 1015.9 |
| 20260504011550 | 57 | 0 | 0.0 | 0.0 | 0.00 | 0.00 | 0.00 | 51 | 1015.9 |
| 20260504010055 | 59 | 0 | 0.0 | 1.7 | 0.00 | 0.00 | 0.00 | 47 | 1015.6 |
| 20260504004555 | 60 | 167 | 0.9 | 1.7 | 0.00 | 0.00 | 0.00 | 46 | 1015.5 |
| 20260504003101 | 61 | 167 | 0.0 | 1.7 | 0.00 | 0.00 | 0.00 | 45 | 1015.5 |
| 20260504001606 | 62 | 148 | 0.0 | 1.7 | 0.00 | 0.00 | 0.00 | 44 | 1015.4 |
| 20260504000122 | 64 | 156 | 0.0 | 2.6 | 0.00 | 0.00 | 0.00 | 42 | 1015.3 |
| 20260503234555 | 66 | 143 | 1.7 | 3.5 | 0.00 | 0.00 | 0.00 | 39 | 1015.1 |
| 20260503233059 | 67 | 142 | 1.7 | 5.2 | 0.00 | 0.00 | 0.00 | 37 | 1015.1 |
| 20260503231600 | 67 | 190 | 0.9 | 4.3 | 0.00 | 0.00 | 0.00 | 35 | 1015.0 |
| 20260503230057 | 67 | 202 | 3.5 | 7.0 | 0.00 | 0.00 | 0.00 | 34 | 1015.0 |
| 20260503224553 | 67 | 142 | 2.6 | 7.0 | 0.00 | 0.00 | 0.00 | 34 | 1015.2 |
| 20260503223047 | 67 | 189 | 3.5 | 8.7 | 0.00 | 0.00 | 0.00 | 33 | 1015.3 |
| 20260503221553 | 67 | 157 | 5.2 | 10.4 | 0.00 | 0.00 | 0.00 | 33 | 1015.3 |
| 20260503220049 | 67 | 215 | 2.6 | 12.2 | 0.00 | 0.00 | 0.00 | 30 | 1015.4 |
| 20260503214549 | 67 | 285 | 3.5 | 8.7 | 0.00 | 0.00 | 0.00 | 30 | 1015.5 |
| 20260503213054 | 66 | 266 | 4.3 | 11.3 | 0.00 | 0.00 | 0.00 | 32 | 1015.8 |
| 20260503211555 | 67 | 280 | 2.6 | 9.6 | 0.00 | 0.00 | 0.00 | 31 | 1016.0 |
| 20260503210054 | 66 | 111 | 3.5 | 7.8 | 0.00 | 0.00 | 0.00 | 32 | 1016.1 |
| 20260503204552 | 66 | 216 | 3.5 | 9.6 | 0.00 | 0.00 | 0.00 | 33 | 1016.4 |
| 20260503203053 | 65 | 273 | 5.2 | 10.4 | 0.00 | 0.00 | 0.00 | 31 | 1016.6 |
| 20260503201553 | 65 | 188 | 4.3 | 9.6 | 0.00 | 0.00 | 0.00 | 33 | 1016.7 |
| 20260503200100 | 64 | 205 | 3.5 | 11.3 | 0.00 | 0.00 | 0.00 | 34 | 1017.0 |
| 20260503194556 | 64 | 263 | 3.5 | 9.6 | 0.00 | 0.00 | 0.00 | 34 | 1017.0 |
| 20260503193059 | 63 | 0 | 2.6 | 13.0 | 0.00 | 0.00 | 0.00 | 34 | 1017.2 |
| 20260503191603 | 63 | 210 | 5.2 | 13.0 | 0.00 | 0.00 | 0.00 | 34 | 1017.5 |
| 20260503190051 | 63 | 262 | 4.3 | 10.4 | 0.00 | 0.00 | 0.00 | 34 | 1017.7 |
| 20260503184552 | 63 | 284 | 4.3 | 9.6 | 0.00 | 0.00 | 0.00 | 34 | 1017.8 |